This is the latest recevied weather packets stored in our database for station/object PU5BHV. If no packets are shown the sender has not sent any weather packets the latest 10 day(s).
| Time | Temp. | Humidity | Pressure | Rain* | Wind** | Luminosity | Snow |
|---|---|---|---|---|---|---|---|
| 1777320968 | 22.78° C | 68% | 1013 hPa | 0 mm | - | 17 W/m² | - |
| 1777320666 | 23.33° C | 65% | 1013 hPa | 0 mm | - | 21 W/m² | - |
| 1777320363 | 23.89° C | 62% | 1012.7 hPa | 0 mm | - | 25 W/m² | - |
| 1777320059 | 26.11° C | 55% | 1012.7 hPa | 0 mm | - | 34 W/m² | - |
| 1777319756 | 26.11° C | 57% | 1012.8 hPa | 0 mm | - | 71 W/m² | - |
| 1777319454 | 25.56° C | 58% | 1012.7 hPa | 0 mm | - | 80 W/m² | - |
| 1777319150 | 25.56° C | 56% | 1012.5 hPa | 0 mm | - | 91 W/m² | - |
| 1777318848 | 26.67° C | 56% | 1012.5 hPa | 0 mm | - | 51 W/m² | - |
| 1777318544 | 27.22° C | 53% | 1012.5 hPa | 0 mm | - | 93 W/m² | - |
| 1777318241 | 26.11° C | 50% | 1012.4 hPa | 0 mm | - | 114 W/m² | - |
| 1777317938 | 26.11° C | 51% | 1012.5 hPa | 0 mm | - | 118 W/m² | - |
| 1777317635 | 27.22° C | 50% | 1012.2 hPa | 0 mm | - | 74 W/m² | - |
| 1777317333 | 27.78° C | 46% | 1012.3 hPa | 0 mm | - | 111 W/m² | - |
| 1777317033 | 29.44° C | 42% | 1012.3 hPa | 0 mm | - | 177 W/m² | - |
| 1777316731 | 30° C | 39% | 1012.2 hPa | 0 mm | - | 219 W/m² | - |
| 1777316427 | 29.44° C | 37% | 1012.3 hPa | 0 mm | - | 223 W/m² | - |
| 1777316124 | 29.44° C | 45% | 1012.2 hPa | 0 mm | - | 246 W/m² | - |
| 1777315822 | 29.44° C | 38% | 1012 hPa | 0 mm | - | 278 W/m² | - |
| 1777315521 | 28.89° C | 44% | 1012 hPa | 0 mm | - | 202 W/m² | - |
| 1777315218 | 30.56° C | 39% | 1012 hPa | 0 mm | - | 141 W/m² | - |
| 1777314915 | 30.56° C | 38% | 1011.7 hPa | 0 mm | - | 284 W/m² | - |
| 1777314610 | 30° C | 34% | 1011.9 hPa | 0 mm | - | 316 W/m² | - |
| 1777314308 | 30° C | 36% | 1011.8 hPa | 0 mm | - | 334 W/m² | - |
| 1777314005 | 30.56° C | 37% | 1011.9 hPa | 0 mm | - | 325 W/m² | - |
| 1777313702 | 30.56° C | 38% | 1012 hPa | 0 mm | - | 333 W/m² | - |
* Rain latest hour (hover to see other rain measurements)
** Current wind speed in m/s (hover to see current wind gust speed)